Location: Grand Lay
(47.3253°N, 0.9468°E)
Time: 06:35:33
(UTC+00:00)

SMAP - Pass Details

Date: 18 January 2026
Orbit: 682 x 683 km, 98.1° (Epoch: 17 February)

Event Time Altitude Azimuth Distance (km) Brightness Sun altitude
Rises 06:51:33 0° 9° (N) 3,058 6.3 -7.7°
Reaches altitude 10° 06:53:50 10° 4° (N) 2,138 5.4 -7.3°
Maximum altitude 06:58:21 50° 290° (WNW) 870 3.2 -6.6°
Drops below altitude 10° 07:02:50 10° 215° (SW) 2,121 5.5 -5.9°
Sets 07:05:06 0° 210° (SSW) 3,032 6.3 -5.6°
